Katta Gehege Affenhaus Messungen

Zurück zum Überblick

Zeitpunkt Temperatur Luftfeuchte
15.10.2019 12:01:56 23,1 C 58,0%
15.10.2019 11:54:53 22,9 C 58,0%
15.10.2019 11:47:53 22,7 C 59,0%
15.10.2019 11:40:50 22,5 C 59,0%
15.10.2019 11:33:49 22,3 C 59,0%
15.10.2019 11:26:48 22,2 C 59,0%
15.10.2019 11:19:47 22,0 C 59,0%
15.10.2019 11:12:44 21,9 C 59,0%
15.10.2019 11:05:44 21,7 C 59,0%
15.10.2019 10:58:41 21,6 C 59,0%
15.10.2019 10:51:40 21,5 C 58,0%
15.10.2019 10:44:38 21,5 C 59,0%
15.10.2019 10:37:37 21,4 C 59,0%
15.10.2019 10:30:33 21,4 C 59,0%
15.10.2019 10:23:31 21,4 C 59,0%
15.10.2019 10:16:30 21,4 C 59,0%
15.10.2019 10:09:29 21,3 C 59,0%
15.10.2019 10:07:45 21,3 C 59,0%
15.10.2019 09:34:25 21,1 C 59,0%
15.10.2019 09:27:13 21,1 C 59,0%
15.10.2019 09:20:20 21,1 C 59,0%
15.10.2019 09:13:17 21,0 C 59,0%
15.10.2019 09:06:15 21,0 C 59,0%
15.10.2019 08:59:14 21,0 C 58,0%
15.10.2019 08:52:13 21,0 C 58,0%
15.10.2019 08:45:13 21,1 C 58,0%
15.10.2019 08:38:10 21,1 C 58,0%
15.10.2019 08:31:06 21,0 C 58,0%
15.10.2019 08:24:04 20,8 C 59,0%
15.10.2019 08:17:01 20,9 C 59,0%
15.10.2019 08:09:59 20,7 C 59,0%
15.10.2019 08:02:58 20,7 C 59,0%
15.10.2019 07:55:55 20,8 C 59,0%
15.10.2019 07:48:54 20,8 C 59,0%
15.10.2019 07:41:52 20,8 C 59,0%
15.10.2019 07:34:51 20,8 C 58,0%
15.10.2019 07:27:51 20,8 C 58,0%
15.10.2019 07:20:50 20,9 C 58,0%
15.10.2019 07:13:48 20,9 C 58,0%
15.10.2019 07:06:46 20,9 C 58,0%
15.10.2019 06:59:45 21,0 C 58,0%
15.10.2019 06:52:42 21,0 C 58,0%
15.10.2019 06:45:41 21,0 C 58,0%
15.10.2019 06:38:40 21,1 C 58,0%
15.10.2019 06:31:38 21,1 C 58,0%
15.10.2019 06:24:35 21,1 C 58,0%
15.10.2019 06:17:33 21,1 C 58,0%
15.10.2019 06:10:31 21,1 C 58,0%
15.10.2019 06:03:29 21,1 C 58,0%
15.10.2019 05:56:28 21,2 C 57,0%
15.10.2019 05:49:26 21,2 C 57,0%
15.10.2019 05:42:25 21,2 C 57,0%
15.10.2019 05:35:24 21,2 C 57,0%
15.10.2019 05:28:23 21,3 C 57,0%
15.10.2019 05:21:23 21,3 C 57,0%
15.10.2019 05:14:20 21,3 C 57,0%
15.10.2019 05:07:18 21,3 C 57,0%
15.10.2019 05:00:15 21,4 C 57,0%
15.10.2019 04:53:13 21,4 C 57,0%
15.10.2019 04:46:11 21,4 C 57,0%
15.10.2019 04:39:08 21,4 C 57,0%
15.10.2019 04:32:07 21,4 C 57,0%
15.10.2019 04:25:04 21,5 C 57,0%
15.10.2019 04:18:03 21,5 C 57,0%
15.10.2019 04:11:01 21,5 C 57,0%
15.10.2019 04:03:59 21,5 C 57,0%
15.10.2019 03:56:58 21,6 C 57,0%
15.10.2019 03:49:57 21,7 C 57,0%
15.10.2019 03:42:55 21,7 C 57,0%
15.10.2019 03:35:52 21,7 C 56,0%
15.10.2019 03:28:50 21,7 C 56,0%
15.10.2019 03:21:49 21,7 C 56,0%
15.10.2019 03:14:46 21,8 C 56,0%
15.10.2019 03:07:45 21,8 C 56,0%
15.10.2019 03:00:44 21,9 C 56,0%
15.10.2019 02:53:40 21,9 C 56,0%
15.10.2019 02:46:40 21,9 C 56,0%
15.10.2019 02:39:38 22,0 C 56,0%
15.10.2019 02:32:38 22,0 C 56,0%
15.10.2019 02:25:36 22,0 C 56,0%
15.10.2019 02:18:34 22,0 C 56,0%
15.10.2019 02:11:31 22,1 C 56,0%
15.10.2019 02:04:28 22,1 C 56,0%
15.10.2019 01:57:28 22,2 C 55,0%
15.10.2019 01:50:26 22,2 C 55,0%
15.10.2019 01:43:24 22,2 C 55,0%
15.10.2019 01:36:22 22,3 C 55,0%
15.10.2019 01:29:19 22,4 C 55,0%
15.10.2019 01:22:17 22,4 C 55,0%
15.10.2019 01:15:15 22,5 C 55,0%
15.10.2019 01:08:14 22,5 C 55,0%
15.10.2019 01:01:12 22,5 C 55,0%
15.10.2019 00:54:10 22,6 C 55,0%
15.10.2019 00:47:09 22,7 C 54,0%
15.10.2019 00:40:06 22,8 C 54,0%
15.10.2019 00:33:05 22,8 C 54,0%
15.10.2019 00:26:02 22,9 C 54,0%
15.10.2019 00:19:00 23,0 C 54,0%
15.10.2019 00:11:56 23,0 C 54,0%
15.10.2019 00:04:53 23,1 C 53,0%